STARLINK-1047 (44752 NORAD) Tracking and Keplerian Element Data

This shows tracking and keplerian element data for the satellite.

Feedback or suggestion? Click here.




ElementValue
Catalog44752
NameSTARLINK-1047
Epoch Orbit161
Epoch Day93.91667824
Epoch Year2020
RAAN213.6423
Inclination52.9998
Eccentricity0.000101
Argument of Perigee108.2832
Mean Anonmoly22.1204
Mean Motion15.05601262
Decay Rate-0.00019906
L11 44752U 19074AR 20093.91667824 -.00019906 00000-0 -13501-2 0 9999
L22 44752 52.9998 213.6423 0001010 108.2832 22.1204 15.05601262 1610

Live tracking and technical data element details for STARLINK-1047 (NORAD 44752). STARLINK-1047 can be tracked NOW for your location showing map with azimuth and elevation plus other details from your city location.

Track the satellite on the map from your city or location and see movement details for azimuth, elevation, latitude, longitude, range, height, and movement on the map or in text.







IsCatalogInMostPopularTable: catalog: 44752, numindb: 50
Update: records affected: 1



GetName: 44752 STARLINK-1047

Hit Count: updated at: Sat, 04 Apr 2020 00:12:44 GMT